This is the latest recevied weather packets stored in our database for station/object KF0DL. If no packets are shown the sender has not sent any weather packets the latest 1 day(s).
| Time | Temp. | Humidity | Pressure | Rain* | Wind** | Luminosity | Snow |
|---|---|---|---|---|---|---|---|
| 1778088201 | 6.67° C | 38% | 1021 hPa | 0 mm | - | - | - |
| 1778087303 | 6.67° C | 36% | 1021.1 hPa | 0 mm | - | - | - |
| 1778086110 | 5.56° C | 39% | 1021.4 hPa | 0 mm | - | - | - |
| 1778085818 | 5.56° C | 39% | 1021.4 hPa | 0 mm | - | - | - |
| 1778084900 | 5.56° C | 38% | 1021.6 hPa | 0 mm | - | - | - |
| 1778084607 | 5.56° C | 39% | 1021.6 hPa | 0 mm | - | - | - |
| 1778083706 | 5.56° C | 38% | 1021.7 hPa | 0 mm | - | - | - |
| 1778083101 | 5.56° C | 39% | 1021.7 hPa | 0 mm | - | - | - |
| 1778081618 | 5° C | 42% | 1021.7 hPa | 0 mm | - | - | - |
| 1778079799 | 3.89° C | 43% | 1022 hPa | 0 mm | - | - | - |
| 1778079507 | 3.89° C | 44% | 1022 hPa | 0 mm | - | - | - |
| 1778078904 | 3.89° C | 48% | 1022.2 hPa | 0 mm | - | - | - |
| 1778078005 | 2.78° C | 50% | 1022.2 hPa | 0 mm | - | - | - |
| 1778077712 | 2.78° C | 52% | 1022.2 hPa | 0 mm | - | - | - |
| 1778077106 | 2.22° C | 54% | 1022.4 hPa | 0 mm | - | - | - |
| 1778076813 | 2.22° C | 55% | 1022.4 hPa | 0 mm | - | - | - |
| 1778076212 | 1.67° C | 58% | 1022.3 hPa | 0 mm | - | - | - |
| 1778075918 | 1.11° C | 60% | 1022.3 hPa | 0 mm | - | - | - |
| 1778075606 | 1.11° C | 61% | 1022.3 hPa | 0 mm | - | - | - |
| 1778075312 | 0.56° C | 62% | 1022.3 hPa | 0 mm | - | - | - |
| 1778074999 | 0.56° C | 63% | 1022.5 hPa | 0 mm | - | - | - |
| 1778074706 | 0° C | 64% | 1022.5 hPa | 0 mm | - | - | - |
| 1778074099 | 0° C | 66% | 1022.5 hPa | 0 mm | - | - | - |
| 1778072013 | -1.11° C | 68% | 1022.4 hPa | 0 mm | - | - | - |
| 1778071408 | -1.11° C | 68% | 1022.4 hPa | 0 mm | - | - | - |
* Rain latest hour (hover to see other rain measurements)
** Current wind speed in m/s (hover to see current wind gust speed)